CEB920 RPVE-RPLL

Flight info

Callsign CEB920
Flight time 0h 35m
Altitude 24000
Route MINOR8A MINOR B473 LAIYA LAIYA3R
Aircraft A20N/M-V/N

Departure

Time 2026-04-24 23:14
Airport Godofredo P. Ramos Airport (RPVE)

Arrival

Time 2026-04-24 23:50
Airport Ninoy Aquino International Airport (RPLL)
Time Latitude Longitude Altitude Speed Heading
2026-04-24 23:00 11.92631 121.96332 58 ft 0 kts 153°
2026-04-24 23:06 11.92638 121.96329 58 ft 2 kts 153°
2026-04-24 23:06 11.92651 121.96321 58 ft 2 kts 153°
2026-04-24 23:06 11.92665 121.96316 58 ft 2 kts 180°
2026-04-24 23:07 11.92680 121.96319 59 ft 2 kts 205°
2026-04-24 23:07 11.92693 121.96327 59 ft 2 kts 231°
2026-04-24 23:07 11.92697 121.96334 59 ft 1 kts 246°
2026-04-24 23:07 11.92699 121.96339 59 ft 0 kts 243°
2026-04-24 23:09 11.92693 121.96327 59 ft 4 kts 243°
2026-04-24 23:09 11.92667 121.96275 57 ft 11 kts 243°
2026-04-24 23:10 11.92642 121.96221 56 ft 6 kts 258°
2026-04-24 23:10 11.92673 121.96179 56 ft 8 kts 335°
2026-04-24 23:10 11.92715 121.96157 56 ft 3 kts 333°
2026-04-24 23:10 11.92731 121.96149 56 ft 2 kts 334°
2026-04-24 23:11 11.92755 121.96137 56 ft 5 kts 333°
2026-04-24 23:11 11.92795 121.96107 56 ft 8 kts 297°
2026-04-24 23:11 11.92772 121.96027 53 ft 15 kts 242°
2026-04-24 23:11 11.92714 121.95910 48 ft 21 kts 243°
2026-04-24 23:12 11.92637 121.95759 41 ft 26 kts 243°
2026-04-24 23:12 11.92547 121.95577 32 ft 30 kts 243°
2026-04-24 23:12 11.92442 121.95367 22 ft 34 kts 244°
2026-04-24 23:12 11.92336 121.95158 19 ft 21 kts 243°
2026-04-24 23:13 11.92294 121.95076 19 ft 10 kts 236°
2026-04-24 23:13 11.92237 121.95021 19 ft 9 kts 258°
2026-04-24 23:13 11.92261 121.95017 19 ft 5 kts 50°
2026-04-24 23:13 11.92282 121.95052 19 ft 6 kts 64°
2026-04-24 23:14 11.92337 121.95168 19 ft 49 kts 62°
2026-04-24 23:14 11.92612 121.95712 39 ft 118 kts 63°
2026-04-24 23:14 11.93039 121.96577 369 ft 144 kts 65°
2026-04-24 23:14 11.93469 121.97452 1128 ft 138 kts 65°
2026-04-24 23:15 11.93911 121.98320 1821 ft 141 kts 65°
2026-04-24 23:15 11.94375 121.99241 2306 ft 153 kts 65°
2026-04-24 23:15 11.94890 122.00266 2735 ft 170 kts 65°
2026-04-24 23:15 11.95457 122.01399 3140 ft 189 kts 65°
2026-04-24 23:16 11.96212 122.02599 3508 ft 216 kts 48°
2026-04-24 23:16 11.97471 122.03522 4163 ft 232 kts 32°
2026-04-24 23:16 11.98983 122.04301 4703 ft 251 kts 30°
2026-04-24 23:16 12.00589 122.05101 5356 ft 263 kts 29°
2026-04-24 23:17 12.02242 122.05924 6204 ft 266 kts 29°
2026-04-24 23:17 12.03910 122.06760 7022 ft 271 kts 28°
2026-04-24 23:17 12.05611 122.07618 7785 ft 276 kts 28°
2026-04-24 23:17 12.07365 122.08502 8563 ft 281 kts 28°
2026-04-24 23:18 12.09137 122.09399 9328 ft 286 kts 27°
2026-04-24 23:18 12.10938 122.10310 10050 ft 291 kts 27°
2026-04-24 23:18 12.12791 122.11246 10633 ft 302 kts 27°
2026-04-24 23:18 12.14732 122.12228 10998 ft 320 kts 27°
2026-04-24 23:19 12.16794 122.13273 11322 ft 338 kts 27°
2026-04-24 23:19 12.18972 122.14377 11640 ft 355 kts 27°
2026-04-24 23:19 12.21233 122.15521 12199 ft 362 kts 27°
2026-04-24 23:19 12.23476 122.16658 12902 ft 364 kts 27°
2026-04-24 23:20 12.25763 122.17817 13541 ft 368 kts 27°
2026-04-24 23:20 12.28080 122.18991 14163 ft 371 kts 27°
2026-04-24 23:20 12.30430 122.20183 14782 ft 375 kts 27°
2026-04-24 23:20 12.32763 122.21365 15374 ft 378 kts 26°
2026-04-24 23:21 12.35270 122.22212 15911 ft 383 kts
2026-04-24 23:21 12.37930 122.22107 16490 ft 385 kts 347°
2026-04-24 23:21 12.40442 122.21056 17082 ft 387 kts 328°
2026-04-24 23:21 12.42674 122.19511 17682 ft 388 kts 326°
2026-04-24 23:22 12.44908 122.17934 18186 ft 392 kts 326°
2026-04-24 23:22 12.47160 122.16349 18672 ft 395 kts 326°
2026-04-24 23:22 12.49456 122.14740 19156 ft 399 kts 326°
2026-04-24 23:22 12.51770 122.13124 19625 ft 403 kts 326°
2026-04-24 23:23 12.54083 122.11512 20079 ft 407 kts 326°
2026-04-24 23:23 12.56445 122.09868 20547 ft 410 kts 326°
2026-04-24 23:23 12.58817 122.08218 21030 ft 413 kts 325°
2026-04-24 23:23 12.61226 122.06542 21492 ft 417 kts 325°
2026-04-24 23:24 12.63650 122.04857 21950 ft 421 kts 325°
2026-04-24 23:24 12.66066 122.03175 22402 ft 424 kts 325°
2026-04-24 23:24 12.68536 122.01457 22875 ft 427 kts 325°
2026-04-24 23:24 12.71002 121.99741 23359 ft 429 kts 325°
2026-04-24 23:25 12.73496 121.98006 23799 ft 431 kts 324°
2026-04-24 23:25 12.75999 121.96262 23962 ft 431 kts 324°
2026-04-24 23:25 12.78461 121.94546 23964 ft 430 kts 324°
2026-04-24 23:25 12.80957 121.92808 23966 ft 429 kts 324°
2026-04-24 23:26 12.83413 121.91096 23967 ft 429 kts 324°
2026-04-24 23:26 12.85881 121.89374 23969 ft 429 kts 324°
2026-04-24 23:26 12.88369 121.87638 23969 ft 429 kts 324°
2026-04-24 23:26 12.90822 121.85928 23968 ft 429 kts 324°
2026-04-24 23:27 12.93314 121.84190 23968 ft 429 kts 324°
2026-04-24 23:27 12.95774 121.82474 23970 ft 429 kts 324°
2026-04-24 23:27 12.98260 121.80738 23972 ft 429 kts 324°
2026-04-24 23:27 13.00760 121.78995 23976 ft 428 kts 324°
2026-04-24 23:28 13.03207 121.77286 23976 ft 428 kts 324°
2026-04-24 23:28 13.05688 121.75553 23977 ft 428 kts 324°
2026-04-24 23:28 13.08152 121.73831 23976 ft 428 kts 324°
2026-04-24 23:28 13.10611 121.72113 23974 ft 429 kts 324°
2026-04-24 23:29 13.13111 121.70366 23973 ft 429 kts 324°
2026-04-24 23:29 13.15584 121.68636 23975 ft 428 kts 324°
2026-04-24 23:29 13.18033 121.66924 23976 ft 429 kts 324°
2026-04-24 23:29 13.20519 121.65185 23977 ft 429 kts 324°
2026-04-24 23:30 13.22969 121.63470 23978 ft 428 kts 324°
2026-04-24 23:30 13.25448 121.61736 23979 ft 428 kts 324°
2026-04-24 23:30 13.27898 121.60020 23979 ft 428 kts 324°
2026-04-24 23:30 13.30380 121.58281 23980 ft 428 kts 324°
2026-04-24 23:31 13.32812 121.56579 23970 ft 426 kts 324°
2026-04-24 23:31 13.35255 121.54868 23598 ft 424 kts 324°
2026-04-24 23:31 13.37716 121.53140 22669 ft 430 kts 324°
2026-04-24 23:31 13.40232 121.51373 21614 ft 438 kts 324°
2026-04-24 23:32 13.42740 121.49614 20539 ft 446 kts 324°
2026-04-24 23:32 13.45328 121.47797 19410 ft 453 kts 325°
2026-04-24 23:32 13.47910 121.45983 18534 ft 451 kts 325°
2026-04-24 23:32 13.50507 121.44160 17871 ft 444 kts 325°
2026-04-24 23:33 13.53021 121.42396 17231 ft 437 kts 325°
2026-04-24 23:33 13.54710 121.41210 16827 ft 433 kts 325°
2026-04-24 23:33 13.57939 121.38935 16455 ft 413 kts 324°
2026-04-24 23:33 13.60250 121.37237 16221 ft 398 kts 323°
2026-04-24 23:34 13.62471 121.35577 15993 ft 385 kts 323°
2026-04-24 23:34 13.64606 121.33978 15735 ft 374 kts 323°
2026-04-24 23:34 13.66695 121.32416 15418 ft 365 kts 323°
2026-04-24 23:34 13.68740 121.30887 15101 ft 358 kts 323°
2026-04-24 23:35 13.70728 121.29401 14788 ft 350 kts 323°
2026-04-24 23:35 13.72687 121.27938 14479 ft 344 kts 323°
2026-04-24 23:35 13.74628 121.26489 14172 ft 337 kts 323°
2026-04-24 23:35 13.76513 121.25081 13882 ft 331 kts 323°
2026-04-24 23:36 13.78350 121.23710 13593 ft 325 kts 323°
2026-04-24 23:36 13.80161 121.22356 13301 ft 319 kts 323°
2026-04-24 23:36 13.81944 121.21024 13051 ft 312 kts 323°
2026-04-24 23:36 13.83697 121.19715 12821 ft 308 kts 323°
2026-04-24 23:37 13.85450 121.18406 12598 ft 308 kts 323°
2026-04-24 23:37 13.87187 121.17108 12392 ft 307 kts 323°
2026-04-24 23:37 13.90640 121.14527 11989 ft 306 kts 323°
2026-04-24 23:38 13.92390 121.13219 11682 ft 305 kts 323°
2026-04-24 23:38 13.94107 121.11935 11357 ft 303 kts 323°
2026-04-24 23:38 13.95817 121.10655 11015 ft 302 kts 323°
2026-04-24 23:38 13.97495 121.09400 10660 ft 300 kts 323°
2026-04-24 23:39 13.99200 121.08125 10296 ft 298 kts 323°
2026-04-24 23:39 14.00865 121.06880 9945 ft 296 kts 324°
2026-04-24 23:39 14.02540 121.05629 9596 ft 294 kts 324°
2026-04-24 23:39 14.04191 121.04395 9240 ft 292 kts 324°
2026-04-24 23:40 14.05848 121.03154 8888 ft 291 kts 324°
2026-04-24 23:40 14.07478 121.01933 8537 ft 289 kts 324°
2026-04-24 23:40 14.09104 121.00716 8194 ft 288 kts 324°
2026-04-24 23:40 14.10730 120.99498 7844 ft 286 kts 325°
2026-04-24 23:41 14.12333 120.98297 7500 ft 285 kts 325°
2026-04-24 23:41 14.13949 120.97086 7144 ft 284 kts 325°
2026-04-24 23:41 14.15538 120.95897 6951 ft 277 kts 325°
2026-04-24 23:41 14.17096 120.94749 6847 ft 269 kts 328°
2026-04-24 23:42 14.18681 120.93751 6594 ft 266 kts 332°
2026-04-24 23:42 14.20307 120.92789 6268 ft 264 kts 332°
2026-04-24 23:42 14.21364 120.92168 6057 ft 263 kts 333°
2026-04-24 23:42 14.23499 120.90914 5652 ft 261 kts 333°
2026-04-24 23:43 14.25047 120.90001 5437 ft 255 kts 332°
2026-04-24 23:43 14.26587 120.89092 5277 ft 246 kts 332°
2026-04-24 23:43 14.28036 120.88236 5159 ft 238 kts 333°
2026-04-24 23:43 14.29497 120.87389 4886 ft 236 kts 333°
2026-04-24 23:44 14.30931 120.86561 4611 ft 235 kts 333°
2026-04-24 23:44 14.32362 120.85734 4338 ft 233 kts 333°
2026-04-24 23:44 14.33781 120.84914 4065 ft 232 kts 333°
2026-04-24 23:44 14.35198 120.84093 3790 ft 231 kts 333°
2026-04-24 23:45 14.36619 120.83270 3516 ft 230 kts 333°
2026-04-24 23:45 14.38057 120.82601 3225 ft 225 kts 354°
2026-04-24 23:45 14.39571 120.82761 3000 ft 215 kts 28°
2026-04-24 23:45 14.40709 120.83737 2985 ft 214 kts 54°
2026-04-24 23:46 14.41516 120.85008 2967 ft 205 kts 61°
2026-04-24 23:46 14.42196 120.86273 2896 ft 196 kts 62°
2026-04-24 23:46 14.42845 120.87497 2675 ft 195 kts 62°
2026-04-24 23:46 14.43509 120.88719 2427 ft 193 kts 61°
2026-04-24 23:47 14.44168 120.89912 2184 ft 193 kts 61°
2026-04-24 23:47 14.44825 120.91093 2014 ft 181 kts 61°
2026-04-24 23:47 14.45421 120.92162 1779 ft 163 kts 61°
2026-04-24 23:47 14.45966 120.93142 1549 ft 149 kts 61°
2026-04-24 23:48 14.46466 120.94041 1331 ft 139 kts 61°
2026-04-24 23:48 14.46943 120.94899 1161 ft 138 kts 61°
2026-04-24 23:48 14.47420 120.95758 997 ft 137 kts 61°
2026-04-24 23:48 14.47900 120.96622 831 ft 137 kts 60°
2026-04-24 23:49 14.48379 120.97483 656 ft 136 kts 61°
2026-04-24 23:49 14.48688 120.98046 563 ft 136 kts 61°
2026-04-24 23:49 14.49319 120.99184 319 ft 136 kts 61°
2026-04-24 23:49 14.49793 121.00030 157 ft 136 kts 61°
2026-04-24 23:50 14.50258 121.00870 82 ft 116 kts 61°
2026-04-24 23:50 14.50519 121.01336 82 ft 48 kts 60°
2026-04-24 23:50 14.50671 121.01609 82 ft 31 kts 56°
2026-04-24 23:50 14.50809 121.01753 82 ft 18 kts 37°
2026-04-24 23:51 14.50874 121.01789 82 ft 10 kts 353°
2026-04-24 23:51 14.50935 121.01743 82 ft 11 kts 316°
2026-04-24 23:51 14.50993 121.01681 82 ft 12 kts 315°
2026-04-24 23:51 14.51057 121.01616 82 ft 13 kts 315°
2026-04-24 23:52 14.51127 121.01543 82 ft 14 kts 315°
2026-04-24 23:52 14.51197 121.01470 82 ft 11 kts 315°
2026-04-24 23:52 14.51264 121.01424 82 ft 12 kts
2026-04-24 23:52 14.51328 121.01486 82 ft 13 kts 51°
2026-04-24 23:53 14.51396 121.01562 82 ft 14 kts 45°
2026-04-24 23:53 14.51477 121.01568 82 ft 13 kts 316°
2026-04-24 23:53 14.51547 121.01495 82 ft 14 kts 315°
2026-04-24 23:53 14.51593 121.01459 82 ft 5 kts 11°
2026-04-24 23:54 14.51632 121.01490 82 ft 8 kts 44°
2026-04-24 23:54 14.51662 121.01520 82 ft 0 kts 44°